Location: Haieshausen
(51.8387°N, 9.9720°E)
Time: 04:26:54
(UTC+00:00)

Meteor 1-4 Rocket - Pass Details

Date: 14 July 2020
Orbit: 449 x 502 km, 81.2° (Epoch: 10 August)

Event Time Altitude Azimuth Distance (km) Brightness Sun altitude
Rises 00:14:10 0° 344° (NNW) 2,597 7.4 -15.8°
Reaches altitude 10° 00:16:20 10° 340° (NNW) 1,701 6.2 -15.7°
Maximum altitude 00:19:59 58° 262° (W) 575 2.7 -15.6°
Enters shadow 00:21:24 33° 197° (SSW) 838 3.2 -15.5°
